Weather History for Weslaco, TX

Change the Weather History Date:

Tuesday, January 14, 2014

  Actual Average (KMFE) Record (KMFE)
Temperature  
Mean Temperature 60 °F 60 °F  
Max Temperature 76 °F 71 °F 89 °F (1947)
Min Temperature 44 °F 50 °F 25 °F (1912)
Degree Days  
Heating Degree Days 5 6  
Month to date heating degree days 95  
Since 1 July heating degree days 332  
Cooling Degree Days 0 2  
Month to date cooling degree days 28  
Year to date cooling degree days 28  
Growing Degree Days 10 (Base 50)    
Moisture  
Dew Point 40 °F    
Average Humidity 51    
Maximum Humidity 80    
Minimum Humidity 26    
Precipitation  
Precipitation 0.00 in 0.03 in 1.04 in (1945)
Month to date precipitation 0.46  
Year to date precipitation 0.46  
Sea Level Pressure  
Sea Level Pressure 30.14 in    
Wind  
Wind Speed 3 mph (SSW)    
Max Wind Speed 13 mph    
Max Gust Speed 17 mph    
Visibility 8 miles    
Events      
T = Trace of Precipitation, MM = Missing Value Source: NWS Daily Summary

Daily Weather History Graph

Daily Weather History Graph

Search for Another Location

Airport:

Trip Planner

Search our weather history database for the weather conditions in past years. The results will help you decide how hot, cold, wet, or windy it might be!

Date:

Astronomy

Jan. 14, 2014 Rise Set
Actual Time 7:20 AM CST 6:01 PM CST
Civil Twilight 6:56 AM CST 6:26 PM CST
Nautical Twilight 6:27 AM CST 6:54 PM CST
Astronomical Twilight 5:59 AM CST 7:22 PM CST
Moon 5:04 PM CST (1/14) 5:59 AM CST (1/14)
Length of Visible Light 11h 29m
Length of Day
10h 40m
Waxing Gibbous, 98% of the Moon is Illuminated
Jan 14
Waxing Gibbous
Jan 15
Full
Jan 23
Last Quarter
Jan 30
New
Feb 6
First Quarter

Hourly Weather History & Observations

Time (CST) Temp. Windchill Dew Point Humidity Pressure Visibility Wind Dir Wind Speed Gust Speed Precip Events Conditions
12:15 AM - - - N/A% 30.17 in 10.0 mi Calm Calm - N/A   Clear
12:35 AM - - - N/A% 30.17 in 10.0 mi Calm Calm - N/A   Clear
12:55 AM - - - N/A% 30.17 in 10.0 mi Calm Calm - N/A   Clear
1:15 AM - - - N/A% 30.17 in 7.0 mi WSW 3.5 mph - N/A   Clear
1:35 AM 50.4 °F - 36.0 °F 58% 30.16 in 10.0 mi Calm Calm - N/A   Clear
1:55 AM 49.8 °F - 35.8 °F 59% 30.16 in 10.0 mi Calm Calm - N/A   Clear
2:15 AM 50.0 °F - 37.0 °F 61% 30.16 in 10.0 mi Calm Calm - N/A   Clear
2:35 AM 48.6 °F - 36.5 °F 63% 30.16 in 10.0 mi WSW 3.5 mph - N/A   Clear
2:55 AM - - - N/A% 30.16 in 10.0 mi West 4.6 mph - N/A   Clear
3:15 AM 50.0 °F - 35.2 °F 57% 30.16 in 10.0 mi Calm Calm - N/A   Clear
3:35 AM 50.0 °F - 34.3 °F 55% 30.16 in 7.0 mi Calm Calm - N/A   Clear
3:55 AM 47.8 °F - 34.9 °F 61% 30.16 in 10.0 mi Calm Calm - N/A   Clear
4:15 AM 47.1 °F - 35.2 °F 63% 30.16 in 7.0 mi Calm Calm - N/A   Clear
4:35 AM 48.0 °F - 35.1 °F 61% 30.16 in 7.0 mi Calm Calm - N/A   Clear
4:55 AM 47.7 °F - 34.7 °F 61% 30.16 in 7.0 mi West 3.5 mph - N/A   Clear
5:15 AM 46.2 °F 45.0 °F 36.9 °F 70% 30.16 in 7.0 mi West 3.5 mph - N/A   Clear
5:35 AM 45.9 °F - 35.8 °F 68% 30.16 in 7.0 mi Calm Calm - N/A   Clear
5:55 AM 46.9 °F - 34.7 °F 62% 30.16 in 10.0 mi West 3.5 mph - N/A   Clear
6:15 AM 46.6 °F - 34.9 °F 64% 30.16 in 7.0 mi Calm Calm - N/A   Clear
6:35 AM 47.3 °F - 34.7 °F 62% 30.16 in 7.0 mi Calm Calm - N/A   Clear
6:55 AM 46.2 °F - 35.6 °F 66% 30.16 in 10.0 mi Calm Calm - N/A   Clear
7:15 AM 44.1 °F 42.5 °F 34.7 °F 70% 30.16 in 10.0 mi WSW 3.5 mph - N/A   Clear
7:35 AM 45.7 °F 44.4 °F 34.7 °F 65% 30.16 in 7.0 mi West 3.5 mph - N/A   Clear
7:55 AM 48.2 °F - 34.2 °F 58% 30.17 in 7.0 mi Calm Calm - N/A   Clear
8:15 AM 48.4 °F - 37.9 °F 67% 30.18 in 7.0 mi Calm Calm - N/A   Clear
8:35 AM - - - N/A% 30.18 in 5.0 mi Calm Calm - N/A   Haze
8:55 AM - - - N/A% 30.18 in 7.0 mi WSW 3.5 mph - N/A   Clear
9:15 AM - - - N/A% 30.18 in 7.0 mi SW 4.6 mph - N/A   Clear
9:35 AM 62.1 °F - 41.7 °F 47% 30.19 in 7.0 mi WSW 6.9 mph - N/A   Clear
9:55 AM 62.6 °F - 42.1 °F 47% 30.19 in 7.0 mi SW 4.6 mph - N/A   Clear
10:15 AM 64.0 °F - 42.3 °F 45% 30.19 in 7.0 mi SSW 4.6 mph - N/A   Clear
10:35 AM 67.1 °F - 41.7 °F 40% 30.19 in 7.0 mi South 5.8 mph - N/A   Clear
10:55 AM 68.7 °F - 41.7 °F 37% 30.18 in 7.0 mi South 8.1 mph - N/A   Clear
11:15 AM 69.4 °F - 38.8 °F 33% 30.18 in 7.0 mi SSW 10.4 mph - N/A   Clear
11:35 AM 70.9 °F - 37.6 °F 30% 30.17 in 7.0 mi South 6.9 mph - N/A   Clear
11:55 AM 72.0 °F - 36.7 °F 28% 30.16 in 10.0 mi South 11.5 mph 16.1 mph N/A   Clear
12:15 PM 71.8 °F - 37.4 °F 29% 30.14 in 10.0 mi South 12.7 mph - N/A   Clear
12:35 PM 72.7 °F - 38.5 °F 29% 30.13 in 10.0 mi South 11.5 mph - N/A   Clear
12:55 PM 73.2 °F - 38.3 °F 28% 30.12 in 7.0 mi SSW 10.4 mph 17.3 mph N/A   Clear
1:15 PM 73.9 °F - 38.3 °F 27% 30.09 in 7.0 mi SSW 9.2 mph - N/A   Clear
1:35 PM 73.8 °F - 37.4 °F 27% 30.08 in 10.0 mi South 8.1 mph - N/A   Clear
1:55 PM 75.0 °F - 37.8 °F 26% 30.08 in 10.0 mi SSW 9.2 mph - N/A   Clear
2:15 PM 75.0 °F - 39.6 °F 28% 30.07 in 7.0 mi SSW 10.4 mph - N/A   Clear
2:35 PM 75.4 °F - 38.8 °F 27% 30.06 in 10.0 mi South 10.4 mph - N/A   Clear
2:55 PM 76.1 °F - 38.7 °F 26% 30.06 in 7.0 mi SSW 6.9 mph - N/A   Clear
3:15 PM 76.1 °F - 38.7 °F 26% 30.05 in 10.0 mi South 8.1 mph - N/A   Clear
3:35 PM 75.6 °F - 38.1 °F 26% 30.05 in 10.0 mi South 11.5 mph - N/A   Clear
3:55 PM 75.7 °F - 37.9 °F 26% 30.05 in 10.0 mi SSE 9.2 mph - N/A   Clear
4:15 PM 75.4 °F - 38.3 °F 26% 30.06 in 10.0 mi South 6.9 mph - N/A   Clear
4:35 PM 75.2 °F - 38.5 °F 27% 30.06 in 10.0 mi SSE 8.1 mph - N/A   Clear
4:55 PM 74.5 °F - 38.5 °F 27% 30.05 in 10.0 mi South 6.9 mph - N/A   Clear
5:15 PM 73.6 °F - 37.9 °F 27% 30.06 in 7.0 mi South 8.1 mph - N/A   Clear
5:35 PM 71.6 °F - 39.6 °F 31% 30.06 in 10.0 mi SSE 5.8 mph - N/A   Clear
5:55 PM 69.4 °F - 42.4 °F 38% 30.07 in 10.0 mi SSE 4.6 mph - N/A   Clear
6:15 PM 67.3 °F - 45.0 °F 45% 30.08 in 10.0 mi SSE 3.5 mph - N/A   Clear
6:35 PM 66.2 °F - 45.5 °F 47% 30.09 in 10.0 mi SE 3.5 mph - N/A   Clear
6:55 PM 63.3 °F - 46.8 °F 55% 30.08 in 10.0 mi SSE 6.9 mph - N/A   Clear
7:15 PM 62.6 °F - 46.8 °F 56% 30.09 in 10.0 mi SSE 5.8 mph - N/A   Clear
7:35 PM 62.1 °F - 46.0 °F 56% 30.11 in 10.0 mi Calm Calm - N/A   Clear
7:55 PM 61.0 °F - 46.4 °F 59% 30.12 in 10.0 mi SE 3.5 mph - N/A   Clear
8:15 PM 59.5 °F - 45.9 °F 61% 30.14 in 10.0 mi SE 3.5 mph - N/A   Clear
8:35 PM 57.9 °F - 45.9 °F 64% 30.16 in 10.0 mi Calm Calm - N/A   Clear
8:55 PM - - - N/A% 30.17 in 7.0 mi Calm Calm - N/A   Clear
9:15 PM 53.6 °F - 46.4 °F 77% 30.18 in 10.0 mi Calm Calm - N/A   Clear
9:35 PM 52.0 °F - 45.7 °F 79% 30.18 in 7.0 mi Calm Calm - N/A   Clear
9:55 PM 51.6 °F - 45.5 °F 80% 30.18 in 7.0 mi Calm Calm - N/A   Clear
10:15 PM 54.3 °F - 46.2 °F 74% 30.19 in 7.0 mi South 5.8 mph - N/A   Clear
10:35 PM 56.7 °F - 46.4 °F 69% 30.20 in 7.0 mi Calm Calm - N/A   Clear
10:55 PM 54.9 °F - 46.4 °F 73% 30.20 in 10.0 mi Calm Calm - N/A   Clear
11:15 PM 53.6 °F - 46.4 °F 77% 30.20 in 7.0 mi SSW 5.8 mph - N/A   Clear
11:35 PM 54.7 °F - 46.6 °F 74% 30.21 in 5.0 mi North 3.5 mph - N/A   Haze
11:55 PM 52.7 °F - 46.8 °F 80% 30.21 in 7.0 mi Calm Calm - N/A   Clear